{"data":{"norad_id":68086,"epoch":"2026-09-19T12:25:57.311616Z","epoch_age_seconds":140288,"freshness":"FRESH","line1":"1 68086U 26042T   26262.51802444  .00025950  00000+0  77581-3 0  9999","line2":"2 68086  53.1611 352.5231 0002011  95.1208 265.0024 15.34428218 32065","mean_motion":15.34428218,"eccentricity":0.0002011,"inclination_deg":53.1611,"raan_deg":352.5231,"arg_perigee_deg":95.1208,"mean_anomaly_deg":265.0024,"bstar":0.00077581,"rev_number":3206,"period_min":93.846032229316,"perigee_km":461.2436955434,"apogee_km":463.99504775607,"semimajor_km":6840.7563716497,"source":"CELESTRAK","updated_at":"2026-09-20T09:00:43.781352Z"}}